Temp_Advection
nan nan nan nan nan nan nan nan nan nan nan nan nan nan nan nan nan nan nan nan nan nan nan nan nan nan nan nan nan nan nan nan nan nan nan nan nan nan nan nan nan nan nan nan nan nan nan nan nan nan nan nan
nan 0 0 0 0 0 1 0 0 0 0 0 0 1 1 0 0 0 0 0 0 0 0 0 0 -0 0 0 0 0 0 0 0 0 0 0 0 1 1 1 1 1 1 1 -0 -0 0 0 0 0 0 nan
nan 0 0 0 0 -0 1 1 0 0 0 0 0 0 1 0 0 0 0 0 -0 -0 0 0 -0 -0 -0 0 0 0 0 1 1 1 1 1 1 1 1 1 1 1 1 1 0 -0 0 0 0 0 0 nan
nan 0 0 0 0 -0 0 1 1 0 0 0 0 0 0 0 0 0 0 0 -0 -0 -0 -0 -1 -0 -0 0 0 0 0 1 1 1 1 1 1 0 0 1 1 1 2 1 -0 -1 -0 0 0 0 0 nan
nan -0 0 0 0 -0 0 1 1 0 0 0 0 0 0 0 0 1 0 0 -0 -1 -1 -1 -1 -1 -0 0 0 0 0 1 1 0 0 0 0 0 1 1 1 2 1 0 -1 -1 -0 0 0 0 0 nan
nan -0 -0 0 0 0 0 1 1 1 1 0 0 0 0 0 0 0 0 0 -1 -2 -1 -1 -1 -0 -0 -0 0 0 0 0 0 0 0 0 0 0 1 1 2 2 0 -0 -1 -1 -0 0 -0 0 -0 nan
nan 0 0 0 0 0 0 1 2 2 1 0 -0 0 0 0 -0 -0 0 -0 -1 -1 0 -0 -1 0 0 -0 -0 0 0 0 0 0 0 0 0 0 1 1 1 0 -1 -1 -1 -1 0 0 -0 -0 -0 nan
nan 0 1 1 0 -0 0 1 2 2 1 -0 -0 -0 0 -0 -0 0 0 -0 -0 -0 0 -0 -0 0 0 -0 -0 -0 0 0 0 0 0 0 0 0 0 0 0 -1 -1 -1 -0 0 0 0 -0 -0 -0 nan
nan 0 0 0 0 0 0 0 1 2 1 -0 -0 -0 -0 -1 -0 0 0 0 0 -0 -1 -1 -0 0 0 0 -0 -1 -1 -0 0 0 0 0 0 0 -0 -0 -1 -1 -1 -0 -0 0 0 -0 -0 0 -0 nan
nan 1 0 -0 0 0 0 0 0 1 1 1 0 -0 -0 -0 0 0 0 0 0 -0 -1 -1 -1 -0 0 -0 -0 -1 -1 -1 -0 -0 0 0 0 -0 -1 -1 -1 -1 -0 -0 0 0 0 -0 0 0 -0 nan
nan 0 0 -0 -0 -0 0 0 0 0 0 0 1 0 0 -0 0 0 -0 1 1 -1 -2 -1 -1 -0 0 -0 -0 -0 -0 -0 -0 -1 -0 -0 -1 -1 -1 -1 -1 -0 -0 -0 0 0 0 0 0 -0 -0 nan
nan -0 0 0 0 -0 -0 -0 0 1 0 0 1 0 0 -0 -0 0 0 1 0 -2 -2 -0 -1 -0 0 0 0 0 1 0 0 -0 -1 -1 -1 -1 -0 -0 -0 -0 -0 0 0 0 -0 0 0 -0 -0 nan
nan -1 -0 0 0 -0 -0 -0 0 0 0 0 0 0 0 0 0 1 1 1 -1 -3 -2 0 -1 0 0 0 0 0 1 0 0 -0 -0 -1 -1 -1 -1 -0 -0 -0 -0 0 0 0 0 0 0 0 -0 nan
nan -0 -0 -0 -0 -0 -0 -0 0 -0 0 0 -0 0 1 1 1 1 1 0 -2 -4 -1 0 -0 0 0 0 0 0 0 0 0 0 0 -1 -2 -1 -0 -0 0 0 -0 -0 0 0 -0 0 0 0 -0 nan
nan -0 -0 -0 -0 -0 -0 -0 -0 -0 0 0 0 0 1 1 1 -0 -1 -1 -2 -2 0 0 0 0 0 0 0 0 1 0 0 1 1 -1 -1 -0 1 1 1 0 -0 -0 0 0 0 0 0 0 -0 nan
nan -0 -0 0 0 -0 0 -0 -0 -0 -0 -0 0 0 1 1 0 -1 -1 -0 -0 -0 -0 -0 0 0 0 0 0 1 1 1 1 1 1 0 0 0 1 1 1 -0 -0 -0 -0 -0 0 0 0 0 0 nan
nan -1 -1 -0 -0 0 0 -0 -0 -0 -0 -0 -0 0 1 1 1 -0 -2 -0 1 1 -0 -0 -0 -0 0 0 0 1 1 1 1 1 1 0 0 0 1 1 0 -0 -0 -0 -0 -0 0 0 0 0 0 nan
nan -0 -1 -1 -1 -0 0 -0 -0 -0 -0 0 -0 0 1 1 2 0 -2 -0 1 0 0 -0 -1 -1 0 1 1 1 1 1 1 1 1 -0 -0 0 1 1 -0 -0 -0 -0 -0 -0 0 0 0 0 0 nan
nan 0 0 -0 -1 -1 -0 -0 0 0 -0 -0 -0 0 0 0 1 -0 -2 0 1 0 0 -1 -1 -1 -0 1 1 1 1 1 1 1 0 -0 -0 0 1 1 0 -0 0 0 0 -0 0 1 1 0 0 nan
nan 0 1 1 0 -1 -1 -1 -0 0 -0 -0 -0 -0 -0 0 1 0 -1 -0 0 0 -0 -1 -1 -1 -0 0 0 0 1 1 1 1 0 -0 -0 0 1 0 0 0 0 1 1 0 0 1 1 0 0 nan
nan -1 0 1 1 0 -0 -1 -1 -1 -0 0 -0 -0 -0 -0 0 1 0 0 0 -0 -0 -0 0 0 -0 -1 -0 1 1 1 1 1 0 -0 0 1 1 1 0 0 1 1 1 1 0 1 1 1 0 nan
nan -3 -2 -1 1 1 1 0 -0 -1 -1 -0 -0 -0 -0 -0 0 0 0 1 1 0 0 -0 0 1 0 -1 -1 0 1 1 1 1 0 0 0 1 1 1 1 1 1 1 1 1 1 1 1 1 1 nan
nan -3 -3 -3 -2 -0 1 1 0 0 -1 -1 -1 -0 -0 0 0 0 0 1 0 0 0 0 0 0 0 -0 -1 -0 0 0 1 1 1 0 0 1 1 1 2 2 1 1 2 2 1 1 1 1 1 nan
nan -2 -2 -3 -3 -3 -2 -0 0 1 0 -0 -1 -1 -1 -0 0 0 0 0 0 0 0 0 0 0 0 1 -0 -0 -0 -1 0 1 0 1 1 1 2 2 2 1 1 2 2 2 2 1 0 1 1 nan
nan -1 -1 -1 -2 -2 -2 -2 -1 -0 1 0 -0 -1 -1 -1 -0 0 0 0 0 0 0 0 0 0 1 1 0 -0 -0 -0 1 1 1 2 2 2 2 2 1 1 2 2 2 2 2 1 0 1 1 nan
nan -1 -1 -1 -1 -1 -1 -2 -2 -2 -0 0 -0 -1 -0 -0 -0 -0 -0 0 0 0 0 0 1 0 0 1 1 1 -0 0 1 1 1 2 2 2 1 1 1 2 2 1 1 1 1 1 1 0 -0 nan
nan 0 -0 -0 -1 -1 -1 -1 -1 -1 -1 -0 -0 -1 -1 -0 -0 -0 -0 -0 0 0 0 0 0 0 0 1 1 1 0 0 1 1 1 1 2 2 1 1 1 1 1 1 1 1 1 1 0 -0 -0 nan
nan 1 1 0 -0 -1 -1 -1 -1 -1 -1 -0 0 -0 -0 -1 -1 -0 -0 -0 -0 0 1 1 0 -0 0 0 1 1 1 0 0 1 1 1 1 1 1 1 1 0 1 1 1 1 0 -0 -1 -1 -0 nan
nan 0 1 1 1 0 -0 -1 -1 -1 -1 -1 -0 0 0 -0 -1 -1 -0 -0 -0 -0 -0 0 1 0 0 0 1 1 1 0 -0 0 1 1 0 0 0 1 1 0 0 0 -0 -0 -1 -1 -1 -1 -0 nan
nan 0 0 1 1 1 0 -0 -1 -1 -1 -1 -0 -0 -0 0 -0 -1 -1 -1 -0 -0 -0 -0 0 0 0 0 1 1 1 0 -0 0 0 0 0 0 0 1 0 -0 0 0 -1 -1 0 -0 -0 0 0 nan
nan nan nan nan nan nan nan nan nan nan nan nan nan nan nan nan nan nan nan nan nan nan nan nan nan nan nan nan nan nan nan nan nan nan nan nan nan nan nan nan nan nan nan nan nan nan nan nan nan nan nan nan
Wind_Speed
21 20 20 20 20 22 20 19 20 20 20 21 20 20 20 19 19 19 19 19 18 17 16 16 17 17 16 16 16 17 18 16 16 16 15 15 14 15 13 14 18 17 19 15 8 6 4 4 5 5 5 5
22 22 21 20 21 23 21 20 20 20 21 21 22 21 22 22 22 22 20 19 18 18 17 16 17 18 17 16 16 16 17 17 17 18 17 17 16 18 17 16 19 18 21 17 11 8 5 5 6 5 6 6
23 23 22 22 22 23 23 22 21 20 21 22 22 22 23 23 23 23 22 21 19 19 19 17 17 19 18 16 16 16 17 18 18 19 18 17 17 18 18 16 16 18 20 14 11 9 4 5 6 5 6 6
24 24 23 23 23 24 24 24 23 22 22 23 23 24 23 23 24 25 24 23 19 19 20 19 18 19 19 17 17 17 17 19 18 18 17 16 17 17 17 18 19 20 16 12 13 10 4 5 6 5 6 7
25 26 25 24 25 25 26 25 25 25 24 24 25 26 25 25 27 25 22 21 19 19 21 22 20 18 18 18 17 17 17 18 18 17 16 16 16 16 18 21 25 23 14 11 14 10 4 5 5 5 6 8
28 27 26 26 26 26 27 27 27 26 24 23 25 27 28 28 26 22 18 17 18 20 22 23 22 19 18 19 18 17 18 18 18 18 17 17 17 17 20 23 24 22 14 12 13 9 7 7 7 6 7 8
31 30 28 27 27 28 28 29 29 26 23 22 22 25 30 28 21 20 20 19 19 21 23 23 23 21 18 19 19 18 18 19 18 18 18 18 18 17 20 22 19 16 14 14 12 9 8 8 9 9 9 10
29 32 31 27 25 29 30 30 32 28 24 23 22 23 26 24 22 23 23 22 22 24 25 24 23 22 20 20 21 21 19 19 19 19 19 18 18 19 22 23 18 14 13 13 11 10 9 10 11 11 11 11
28 28 28 27 24 26 29 30 32 31 27 24 24 25 23 23 25 24 21 21 22 25 27 26 24 23 22 22 23 24 23 20 18 18 21 21 21 23 24 22 18 15 14 13 12 11 11 12 12 12 12 12
29 26 24 26 25 24 26 27 28 32 32 28 27 27 24 24 25 22 21 23 21 23 30 28 25 24 23 24 25 26 26 24 22 20 20 21 24 26 25 23 20 17 15 15 14 13 13 14 13 13 13 13
26 27 25 25 25 24 25 26 26 28 31 31 29 26 24 25 26 23 22 25 22 23 31 30 27 26 25 26 26 26 27 26 26 25 23 22 25 27 26 25 24 21 19 17 16 16 16 15 15 15 15 14
18 22 25 26 26 26 26 27 27 26 28 29 27 22 22 26 27 26 26 26 23 24 32 33 30 28 26 27 27 27 27 27 27 28 29 28 28 28 28 27 26 24 22 19 18 18 18 17 17 17 16 16
13 16 19 22 25 26 27 29 27 25 26 27 26 24 24 26 26 27 28 27 24 28 35 35 33 31 29 29 29 29 29 28 28 29 30 31 31 31 30 29 28 26 23 21 20 20 20 19 18 18 18 18
12 13 15 16 18 22 26 29 29 26 25 24 25 27 28 28 25 25 27 27 29 35 38 37 37 35 32 32 32 30 30 30 30 30 30 31 31 31 31 30 29 27 25 24 22 21 22 21 20 20 20 19
11 13 15 15 15 17 20 24 27 28 28 27 26 27 30 29 28 32 36 35 37 41 40 39 39 38 37 36 34 32 32 32 31 31 31 32 31 30 30 30 30 29 28 26 24 23 23 22 22 21 21 20
15 12 13 16 17 16 17 19 22 25 27 29 29 29 30 30 29 36 45 44 42 42 42 42 42 41 41 39 37 35 34 34 33 33 33 33 33 31 30 30 31 30 29 28 26 26 25 24 24 23 22 21
19 17 15 13 14 16 18 18 18 20 23 26 28 30 31 31 29 30 41 47 45 44 44 44 44 44 43 41 40 38 36 36 35 35 35 35 34 33 32 31 32 32 30 30 29 28 27 26 25 24 23 22
19 18 17 16 14 13 16 18 18 18 20 22 25 29 29 32 32 30 38 45 44 45 46 46 46 46 46 44 42 41 39 39 38 38 38 38 36 35 34 33 34 34 32 31 31 30 29 27 26 25 25 24
21 18 16 15 16 16 15 15 17 18 19 20 22 25 27 29 31 32 41 47 44 45 46 48 49 49 49 47 45 44 42 41 41 40 40 40 38 36 36 35 35 35 34 33 33 32 31 29 28 27 26 26
24 21 18 16 15 16 18 17 15 15 18 19 20 22 23 26 28 28 33 39 43 46 47 49 50 50 50 49 49 47 46 44 44 43 43 42 41 38 37 36 36 36 35 34 35 34 33 31 29 29 28 27
29 26 22 19 16 15 15 16 16 14 14 16 19 21 22 23 25 25 25 27 32 38 45 49 50 50 50 51 52 50 49 48 47 46 45 44 43 40 39 38 37 37 37 36 36 36 35 33 32 31 30 29
31 29 26 24 20 17 14 13 13 14 15 15 15 18 21 23 25 25 24 24 25 28 34 41 46 49 48 50 54 52 51 51 49 49 48 47 46 43 42 40 39 39 39 38 37 37 36 35 34 33 32 31
27 28 27 26 25 22 18 15 14 14 14 14 15 15 16 19 23 25 25 25 24 24 28 31 36 41 42 46 53 53 52 52 51 51 51 49 48 47 44 42 42 42 40 39 38 38 37 36 36 35 33 32
24 24 23 24 25 24 23 21 19 16 14 14 14 13 14 14 16 20 23 26 24 24 26 27 28 32 35 40 48 52 52 53 54 53 53 52 50 49 47 45 44 43 41 39 38 37 37 37 37 36 35 35
22 22 21 22 23 22 23 24 23 21 16 15 16 15 13 12 13 14 16 19 23 26 27 27 26 28 30 33 40 47 50 51 51 52 52 52 51 49 50 49 46 44 41 39 37 35 35 36 37 37 36 36
21 21 21 22 22 21 21 21 21 22 20 19 20 19 16 14 13 13 13 13 16 22 27 29 27 26 28 29 33 38 42 45 45 47 49 50 50 50 50 50 47 46 44 41 39 35 33 33 34 36 38 38
21 22 22 23 22 20 20 20 19 20 22 21 21 22 20 18 16 15 14 14 14 16 21 26 28 27 28 29 30 30 34 40 42 43 46 49 50 49 48 46 45 47 47 44 40 33 29 26 23 26 33 38
22 23 23 23 22 21 20 20 18 17 18 20 23 24 23 21 18 17 16 15 15 15 17 20 25 27 27 27 27 28 29 34 38 41 44 47 49 49 47 46 46 47 47 47 41 34 26 19 17 19 24 30
23 25 25 24 24 23 21 20 18 16 15 17 20 22 23 24 22 19 18 16 15 16 15 16 18 22 26 26 26 28 29 30 32 35 38 42 45 47 48 47 46 46 47 49 46 40 30 20 17 18 16 17
25 26 26 26 26 25 24 22 20 18 16 16 18 19 20 22 22 21 21 19 17 17 16 15 16 17 21 24 27 29 29 29 29 30 32 36 39 43 46 45 44 46 48 48 47 46 40 30 25 20 15 14
26 26 26 26 27 26 25 24 23 21 19 20 19 19 19 19 19 19 20 20 18 18 17 16 16 16 17 19 24 27 29 28 29 29 29 31 34 37 40 41 41 44 48 48 47 48 45 38 31 25 20 18
Wind_Direction
228 230 230 228 230 231 216 204 206 201 204 206 205 210 210 208 209 208 207 206 204 204 202 201 201 195 192 197 195 193 198 200 202 201 196 197 198 198 196 213 222 225 237 237 220 200 193 218 212 213 215 219
233 233 234 232 232 235 225 209 207 205 204 205 205 206 208 206 206 207 207 206 202 201 202 201 202 196 193 196 196 194 196 198 203 204 199 198 199 199 195 210 225 231 243 243 229 210 195 221 217 214 219 224
239 238 237 236 235 237 232 217 210 210 207 206 208 211 209 206 210 211 206 205 202 201 202 200 201 197 192 196 196 195 197 198 203 204 200 199 197 196 194 207 223 235 241 230 219 215 192 225 220 216 226 229
243 243 241 240 239 239 237 225 214 211 210 205 206 215 216 209 214 218 212 209 207 205 202 201 205 199 193 197 197 196 200 200 201 202 199 198 197 194 197 207 213 222 227 205 213 226 214 235 227 225 235 234
242 245 244 241 241 241 239 232 222 214 212 208 205 210 217 216 217 220 217 212 209 209 207 206 211 203 194 197 197 196 198 201 201 201 199 199 198 195 201 211 213 215 215 201 213 230 253 257 246 246 247 240
241 243 245 244 242 243 241 237 230 220 215 214 210 208 213 218 220 218 213 209 208 213 215 215 217 212 200 195 197 198 196 200 201 201 202 201 200 198 204 213 216 215 211 206 214 237 269 274 271 267 261 253
245 243 245 246 245 244 243 240 235 227 219 218 215 212 213 215 217 215 212 212 213 217 220 222 223 221 212 196 196 200 199 203 202 200 203 202 201 201 209 211 210 212 213 216 226 246 264 270 272 268 261 256
249 249 247 246 246 246 246 244 239 232 224 221 217 216 216 214 215 214 213 216 220 221 221 224 226 224 220 206 198 199 201 206 204 199 200 203 203 204 213 215 209 214 224 234 243 252 258 263 265 263 259 254
248 252 251 247 245 245 245 244 242 237 230 225 219 218 219 217 216 215 213 216 220 221 221 224 227 223 220 216 209 204 201 202 203 201 200 201 204 209 216 215 212 219 235 250 257 257 260 262 261 262 261 257
253 252 252 249 246 244 242 240 241 239 236 231 224 220 219 221 219 216 214 214 214 216 220 224 227 227 221 218 219 216 210 204 202 202 203 202 204 214 219 216 218 230 243 256 262 262 261 262 262 263 262 260
261 256 252 251 247 244 241 238 239 238 236 234 231 224 218 220 222 219 216 215 212 215 221 223 227 230 227 223 224 226 223 215 209 203 204 207 209 218 223 222 228 237 245 253 259 261 260 260 262 262 260 259
271 263 256 254 250 247 244 242 241 239 237 235 232 228 221 219 221 221 219 216 213 218 223 224 227 229 229 228 227 230 229 223 219 212 208 213 219 224 227 228 232 239 245 250 254 257 259 259 259 259 259 258
280 272 264 259 255 251 248 246 244 242 241 238 234 233 229 222 220 219 219 215 214 226 228 225 228 229 229 230 228 230 230 227 226 222 217 220 225 228 231 233 236 241 246 248 250 253 257 257 256 257 258 258
278 272 270 267 263 257 253 250 247 245 243 240 236 236 235 228 224 221 220 220 225 233 233 229 229 229 229 230 230 230 231 231 231 230 226 226 231 233 235 237 239 242 246 249 248 249 252 254 255 256 257 257
302 279 269 265 264 261 258 255 251 249 246 243 239 237 238 235 232 231 230 231 234 237 237 234 233 231 231 230 231 231 231 232 234 235 233 233 237 239 239 238 240 242 244 248 248 247 249 252 254 255 256 257
350 325 291 271 265 263 260 258 255 251 247 246 243 240 239 238 239 239 238 237 237 239 239 239 237 235 234 233 233 232 232 233 233 234 234 236 238 241 241 238 240 242 244 247 247 247 248 249 252 254 256 258
1 355 341 313 285 271 264 262 261 255 251 248 246 244 241 240 241 240 240 240 239 240 241 241 241 239 238 237 236 235 234 234 233 233 233 235 238 240 241 238 240 243 244 245 246 247 247 247 249 251 253 256
356 356 354 348 332 306 279 268 264 260 256 252 249 246 243 243 243 243 247 246 241 240 241 242 243 243 242 240 239 238 236 235 235 234 233 235 237 238 240 239 240 243 245 245 247 248 247 246 247 248 250 252
349 350 348 345 344 338 325 297 273 263 259 255 254 250 245 244 246 250 253 252 247 243 242 243 244 245 245 243 242 241 239 237 236 236 235 236 237 238 239 240 241 244 246 246 248 249 249 247 246 247 248 249
342 341 340 339 336 336 339 335 312 285 268 259 255 254 249 246 248 251 252 253 251 249 246 246 246 246 247 246 244 243 242 240 238 237 237 238 240 239 239 240 241 244 246 247 247 249 250 249 247 246 247 249
336 335 333 332 331 330 331 333 331 320 300 280 264 256 252 250 250 251 249 248 248 249 249 248 248 247 247 247 247 245 244 242 241 240 239 240 241 241 240 240 241 243 245 245 246 247 249 250 248 247 247 248
332 332 330 327 324 324 320 318 319 322 321 313 295 274 261 253 251 250 248 246 244 244 246 247 248 247 245 247 248 246 245 244 243 242 241 241 242 242 241 241 241 242 243 244 245 246 248 249 249 248 248 248
329 330 328 324 322 318 314 310 305 307 312 313 313 304 288 271 260 254 248 246 244 242 243 244 244 244 242 243 247 247 245 245 244 243 242 241 242 242 241 241 240 240 240 242 243 244 246 248 249 249 249 249
328 329 327 323 321 318 314 309 302 301 302 300 301 304 304 298 284 269 256 250 246 243 242 240 239 239 237 238 245 246 245 245 244 243 243 243 242 241 240 238 237 237 238 239 240 243 245 246 249 250 249 249
327 327 325 321 318 316 313 310 306 302 295 286 283 282 285 292 293 289 277 262 253 248 244 238 236 235 233 234 241 244 244 243 243 242 243 242 240 239 238 235 234 235 234 234 234 236 239 243 247 249 248 248
325 323 320 317 314 310 308 306 303 300 294 286 282 278 276 276 279 285 290 285 269 256 248 242 237 231 228 229 236 241 242 241 240 239 239 239 237 236 236 235 234 234 231 229 229 230 234 239 244 247 249 249
319 318 317 315 311 305 302 299 297 295 293 294 293 287 281 272 268 272 277 284 285 272 257 246 240 234 228 226 231 237 239 239 238 237 236 237 235 233 233 233 232 233 231 230 227 225 227 229 231 241 248 248
314 314 314 314 310 304 299 296 294 292 290 294 299 299 295 286 274 266 265 270 276 278 271 255 242 237 233 227 228 233 235 235 236 236 235 235 234 233 232 231 230 231 231 230 225 219 216 216 217 227 239 245
310 310 311 311 310 307 303 298 294 290 285 286 290 295 298 297 291 278 266 262 261 265 269 265 252 241 235 230 227 229 231 232 234 234 234 235 235 234 233 230 229 230 231 230 227 223 217 209 214 221 228 238
307 306 306 308 309 307 304 299 294 289 284 280 279 282 286 290 295 293 283 271 259 256 256 259 260 253 243 234 227 227 231 232 232 230 228 231 232 232 232 230 228 231 233 231 229 229 226 224 226 224 217 216
306 303 301 302 303 302 299 296 291 287 284 281 279 278 278 278 282 287 289 285 272 261 255 251 250 250 249 244 234 230 232 233 234 232 228 227 226 227 228 227 227 230 234 232 230 229 228 227 229 224 213 209
Height
1482 1482 1482 1482 1483 1483 1483 1484 1485 1486 1489 1490 1492 1493 1493 1494 1495 1495 1495 1495 1495 1495 1495 1494 1494 1495 1497 1498 1499 1501 1502 1502 1503 1504 1505 1506 1508 1509 1510 1511 1509 1508 1508 1508 1507 1507 1508 1508 1508 1509 1509 1510
1482 1482 1482 1482 1482 1483 1482 1482 1483 1485 1486 1488 1489 1490 1491 1492 1492 1493 1493 1493 1493 1494 1494 1493 1493 1493 1495 1496 1498 1499 1500 1502 1502 1503 1504 1505 1506 1507 1509 1509 1507 1507 1507 1507 1506 1506 1507 1507 1507 1508 1508 1509
1481 1481 1481 1481 1482 1482 1482 1482 1483 1483 1485 1486 1487 1488 1489 1489 1490 1490 1491 1491 1491 1492 1492 1492 1492 1492 1494 1495 1496 1498 1499 1500 1501 1501 1502 1503 1504 1505 1507 1507 1507 1506 1506 1506 1506 1505 1506 1506 1506 1507 1507 1508
1479 1480 1480 1481 1481 1481 1482 1481 1482 1483 1484 1485 1486 1487 1488 1488 1489 1489 1489 1489 1489 1490 1490 1491 1490 1490 1492 1494 1495 1496 1497 1498 1499 1499 1500 1501 1502 1504 1505 1506 1505 1504 1504 1505 1505 1504 1504 1505 1505 1505 1506 1507
1478 1478 1478 1479 1479 1480 1480 1480 1481 1481 1483 1484 1485 1486 1487 1487 1487 1488 1488 1487 1487 1487 1488 1489 1489 1488 1490 1492 1493 1494 1496 1496 1497 1498 1498 1499 1500 1502 1503 1503 1502 1502 1502 1503 1502 1502 1502 1503 1503 1504 1505 1506
1477 1477 1477 1477 1478 1478 1478 1479 1479 1480 1481 1482 1483 1484 1485 1485 1486 1486 1486 1485 1485 1485 1486 1486 1487 1487 1488 1490 1492 1492 1493 1495 1495 1496 1497 1498 1498 1500 1500 1499 1500 1500 1500 1500 1500 1499 1500 1501 1501 1502 1503 1504
1475 1476 1476 1476 1476 1477 1477 1477 1477 1478 1479 1480 1481 1482 1483 1483 1484 1485 1485 1484 1482 1483 1484 1484 1485 1486 1486 1488 1490 1491 1492 1493 1494 1495 1496 1496 1497 1498 1497 1497 1497 1497 1497 1497 1498 1498 1498 1499 1499 1500 1502 1502
1474 1474 1475 1475 1475 1475 1475 1475 1476 1476 1477 1478 1479 1480 1481 1482 1482 1483 1483 1482 1481 1481 1482 1482 1483 1484 1485 1486 1488 1489 1490 1491 1491 1492 1494 1494 1495 1496 1495 1494 1495 1494 1494 1495 1496 1497 1497 1497 1498 1499 1500 1501
1472 1473 1473 1474 1474 1474 1474 1474 1474 1474 1475 1476 1477 1479 1480 1480 1480 1480 1481 1481 1479 1478 1479 1479 1480 1481 1483 1484 1485 1486 1487 1488 1489 1490 1491 1492 1493 1493 1492 1492 1493 1492 1492 1493 1494 1495 1495 1495 1496 1497 1498 1499
1470 1471 1471 1472 1473 1473 1473 1472 1472 1472 1472 1473 1475 1476 1478 1479 1479 1478 1478 1479 1477 1476 1476 1476 1477 1478 1480 1481 1482 1483 1484 1485 1486 1487 1488 1489 1490 1489 1489 1490 1490 1490 1491 1491 1492 1493 1493 1494 1495 1496 1497 1497
1467 1468 1469 1470 1471 1471 1472 1472 1471 1471 1471 1471 1472 1473 1476 1477 1477 1476 1476 1476 1475 1473 1473 1473 1474 1475 1477 1478 1479 1479 1481 1482 1483 1485 1486 1486 1486 1486 1486 1487 1488 1488 1489 1489 1490 1491 1491 1492 1493 1494 1495 1496
1464 1465 1466 1467 1468 1468 1469 1470 1470 1470 1470 1470 1470 1471 1472 1473 1474 1474 1474 1473 1472 1470 1470 1471 1471 1472 1473 1474 1476 1477 1478 1479 1480 1482 1483 1483 1483 1483 1484 1485 1485 1486 1487 1488 1489 1489 1490 1491 1492 1492 1493 1494
1462 1462 1463 1463 1464 1465 1466 1467 1467 1468 1468 1468 1469 1469 1469 1470 1471 1471 1471 1470 1469 1468 1468 1469 1468 1469 1470 1471 1473 1474 1475 1476 1478 1479 1480 1480 1480 1481 1481 1482 1483 1484 1485 1486 1487 1487 1488 1489 1490 1490 1491 1492
1460 1460 1460 1460 1461 1462 1462 1463 1464 1465 1466 1466 1466 1467 1467 1467 1467 1467 1468 1467 1466 1465 1466 1466 1466 1466 1467 1468 1469 1471 1472 1473 1474 1475 1477 1477 1477 1478 1479 1480 1480 1481 1482 1483 1485 1485 1486 1486 1487 1488 1489 1489
1457 1457 1457 1457 1457 1458 1459 1459 1460 1461 1462 1463 1463 1464 1464 1464 1464 1463 1464 1464 1463 1463 1464 1464 1464 1464 1464 1464 1466 1467 1469 1470 1471 1472 1473 1474 1474 1475 1476 1478 1478 1479 1480 1480 1482 1483 1483 1484 1485 1486 1486 1487
1456 1455 1454 1454 1454 1454 1455 1455 1456 1457 1458 1459 1460 1461 1461 1461 1460 1458 1459 1460 1460 1460 1460 1461 1461 1461 1461 1462 1463 1464 1465 1466 1468 1469 1470 1471 1472 1473 1474 1475 1475 1476 1477 1478 1479 1480 1481 1482 1482 1483 1484 1485
1455 1454 1452 1452 1451 1451 1451 1451 1451 1452 1453 1454 1455 1456 1456 1456 1456 1454 1454 1455 1456 1456 1457 1457 1458 1458 1459 1459 1460 1461 1463 1464 1464 1466 1466 1467 1469 1469 1471 1472 1472 1473 1474 1475 1476 1477 1478 1479 1480 1481 1482 1482
1455 1453 1452 1450 1449 1449 1448 1448 1448 1448 1449 1449 1450 1451 1451 1452 1452 1450 1449 1451 1452 1452 1452 1453 1453 1454 1455 1456 1457 1458 1459 1460 1461 1462 1462 1463 1465 1466 1467 1468 1469 1469 1471 1472 1472 1473 1475 1476 1477 1478 1479 1480
1455 1453 1451 1450 1448 1447 1446 1445 1444 1444 1445 1445 1446 1447 1446 1447 1447 1445 1444 1446 1447 1448 1448 1448 1448 1449 1450 1452 1453 1454 1456 1457 1457 1458 1459 1459 1461 1462 1463 1464 1465 1466 1467 1468 1468 1469 1471 1472 1474 1474 1475 1477
1454 1453 1451 1449 1447 1445 1444 1442 1441 1441 1441 1441 1442 1442 1442 1442 1443 1440 1439 1440 1442 1443 1443 1443 1444 1444 1445 1447 1448 1450 1451 1453 1453 1454 1455 1455 1457 1458 1460 1461 1462 1462 1463 1465 1465 1466 1467 1469 1470 1471 1472 1473
1451 1450 1449 1448 1447 1445 1443 1441 1440 1439 1438 1437 1437 1438 1438 1438 1438 1437 1435 1435 1436 1437 1438 1438 1439 1440 1440 1441 1442 1444 1446 1448 1449 1450 1451 1451 1452 1454 1456 1457 1458 1458 1460 1461 1462 1462 1463 1465 1466 1467 1468 1469
1449 1447 1446 1445 1444 1443 1442 1441 1439 1437 1436 1434 1433 1433 1433 1433 1434 1433 1432 1432 1432 1432 1432 1433 1434 1435 1436 1435 1436 1438 1441 1442 1444 1445 1446 1447 1448 1450 1452 1453 1454 1455 1456 1457 1459 1459 1460 1461 1462 1464 1465 1466
1447 1445 1443 1441 1440 1439 1439 1439 1437 1436 1434 1433 1431 1430 1429 1428 1428 1427 1428 1428 1428 1427 1427 1428 1428 1430 1431 1430 1429 1432 1434 1436 1438 1439 1440 1442 1444 1445 1447 1449 1450 1451 1452 1454 1455 1456 1456 1457 1458 1460 1462 1463
1445 1443 1441 1439 1436 1435 1434 1434 1434 1433 1433 1431 1429 1427 1426 1425 1424 1423 1423 1423 1423 1423 1423 1423 1423 1424 1426 1426 1424 1426 1428 1429 1431 1433 1435 1437 1439 1440 1443 1444 1445 1446 1448 1450 1452 1453 1454 1454 1455 1457 1458 1459
1443 1441 1439 1437 1434 1432 1430 1429 1429 1429 1430 1429 1427 1425 1423 1422 1421 1420 1419 1419 1419 1418 1418 1418 1418 1419 1420 1421 1420 1420 1422 1423 1425 1428 1430 1432 1434 1435 1436 1438 1439 1442 1444 1446 1448 1449 1450 1451 1452 1453 1454 1455
1441 1439 1437 1435 1432 1431 1428 1426 1425 1424 1425 1425 1424 1423 1421 1418 1418 1417 1416 1416 1415 1414 1414 1413 1413 1413 1414 1416 1417 1416 1417 1419 1421 1423 1424 1426 1428 1429 1430 1432 1435 1436 1438 1440 1442 1445 1448 1448 1449 1449 1450 1451
1439 1438 1436 1433 1430 1429 1426 1424 1422 1420 1420 1420 1420 1420 1418 1416 1414 1413 1413 1413 1412 1411 1410 1410 1409 1408 1408 1410 1412 1412 1413 1414 1415 1417 1418 1420 1422 1424 1426 1428 1430 1431 1432 1434 1438 1442 1444 1444 1446 1446 1445 1445
1437 1436 1434 1431 1429 1427 1424 1422 1419 1417 1417 1417 1416 1416 1415 1413 1412 1410 1410 1409 1409 1408 1407 1407 1406 1405 1404 1404 1406 1408 1409 1408 1409 1411 1412 1414 1416 1419 1421 1423 1424 1425 1427 1429 1433 1436 1439 1441 1443 1442 1440 1440
1435 1433 1431 1429 1427 1424 1422 1420 1417 1415 1414 1414 1414 1413 1412 1411 1409 1408 1406 1406 1405 1405 1404 1403 1403 1402 1400 1399 1401 1403 1404 1404 1405 1406 1407 1409 1411 1413 1415 1417 1419 1420 1422 1423 1426 1429 1432 1436 1436 1436 1437 1438
1432 1430 1428 1426 1424 1422 1420 1417 1415 1413 1412 1411 1410 1410 1410 1409 1407 1405 1403 1402 1401 1401 1400 1399 1398 1398 1397 1396 1396 1397 1399 1399 1400 1402 1403 1404 1406 1408 1410 1413 1415 1415 1416 1419 1422 1424 1426 1428 1429 1432 1434 1435
1428 1426 1425 1423 1422 1420 1418 1415 1413 1411 1409 1408 1406 1406 1406 1406 1405 1404 1402 1399 1398 1397 1396 1395 1394 1393 1393 1392 1392 1393 1394 1394 1395 1397 1399 1400 1401 1403 1406 1408 1410 1410 1411 1414 1416 1419 1421 1423 1425 1428 1430 1431